Regional Weather Roundup
Issued by NWS

Home | Current Version | Previous Version | Text Only | Print | Product List | Glossary Off
Versions: 1 2 3 4 5 6 7 8 9 10 11 12 13 14 15 16 17 18 19 20 21 22 23 24 25 26 27 28 29 30 31 32 33 34 35 36 37 38 39 40 41 42 43 44 45 46 47 48 49 50

000
ASUS43 KOAX 280610
RWRNE

WEATHER ROUNDUP FOR NEBRASKA
NATIONAL WEATHER SERVICE OMAHA NE
100 AM CDT FRI AUG 28 2015

NOTES: SATELLITE DATA IS BEING USED TO AUGMENT CLOUD COVER ABOVE
       12000 FEET.
       "FAIR" INDICATES FEW OR NO CLOUDS BELOW 12,000 FEET WITH NO
       SIGNIFICANT WEATHER AND/OR OBSTRUCTIONS TO VISIBILITY.

  * THESE STATIONS DO NOT REPORT WEATHER SUCH AS RAIN...SNOW OR FOG.

NEZ001>004-019>022-054>056-280700-
NEBRASKA PANHANDLE

CITY           SKY/WX    TMP DP  RH WIND       PRES   REMARKS
SCOTTSBLUFF    MOCLDY    62  56  80 N5        30.08S
6HR MIN TEMP:  61; 6HR MAX TEMP:  81;

ALLIANCE       PTCLDY    53  51  93 W8        30.04F
6HR MIN TEMP:  53; 6HR MAX TEMP:  75;

CHADRON        PTCLDY    55  52  89 W7        30.03R
6HR MIN TEMP:  55; 6HR MAX TEMP:  78;

KIMBALL        PTCLDY    58  54  84 W3        30.12S
SIDNEY         PTCLDY    58  54  86 NW8       30.08F
6HR MIN TEMP:  56; 6HR MAX TEMP:  79;

$$

NEZ057>060-069>072-079>082-280700-
SOUTHWEST NEBRASKA

CITY           SKY/WX    TMP DP  RH WIND       PRES   REMARKS
NORTH PLATTE   PTCLDY    68  65  90 N8        29.93S
6HR MIN TEMP:  68; 6HR MAX TEMP:  84;

IMPERIAL       CLEAR     66  60  81 NW12      30.00R
6HR MIN TEMP:  66; 6HR MAX TEMP:  82;

LEXINGTON      CLEAR     69  67  94 W6        29.89R
MCCOOK         CLEAR     71  64  78 NW10      29.92R
6HR MIN TEMP:  71; 6HR MAX TEMP:  92;

OGALLALA       PTCLDY    66  61  82 NW7       30.00R
$$

NEZ005>010-023>029-035>040-094-280700-
NORTH CENTRAL NEBRASKA

CITY           SKY/WX    TMP DP  RH WIND       PRES   REMARKS
AINSWORTH      CLOUDY    70  69  98 N6        29.91F FOG
BROKEN BOW     PTCLDY    69  67  93 NW3       29.88F
6HR MIN TEMP:  69; 6HR MAX TEMP:  79; 6HR PCP:  2.09;

O`NEILL        CLOUDY    70  69  97 E10       29.89F
ORD            PTCLDY    68  65  90 SE5       29.84F
6HR MIN TEMP:  67; 6HR MAX TEMP:  80; 6HR PCP: TRACE;

THEDFORD       PTCLDY    67  65  93 NW6       29.95F
$$

NEZ041-046>049-061>064-073>077-083>087-280700-
SOUTH CENTRAL NEBRASKA

CITY           SKY/WX    TMP DP  RH WIND       PRES   REMARKS
GRAND ISLAND   FAIR      75  65  70 SW16G31   29.84S
6HR MIN TEMP:  74; 6HR MAX TEMP:  81;

AURORA         FAIR      74  66  75 SW12      29.84R
HASTINGS       FAIR      74  65  73 SW16G23   29.85S
6HR MIN TEMP:  74; 6HR MAX TEMP:  80;

HEBRON         FAIR      76  60  57 S20G33    29.83F
HOLDREGE       FAIR      72  64  73 SW3       29.87S
KEARNEY *      FAIR      72  64  78 SW9       29.86S
YORK           CLOUDY    70  68  94 NE7       29.87R
$$

NEZ011>018-030>034-042>045-280700-
NORTHEAST NEBRASKA

CITY           SKY/WX    TMP DP  RH WIND       PRES   REMARKS
NORFOLK        LGT RAIN  67  65  93 E17       29.84F
6HR MIN TEMP:  67; 6HR MAX TEMP:  80; 6HR PCP:  0.89;

ALBION         CLOUDY    68  65  90 SE9G17    29.84S
BLAIR          TSTM      67  65  91 E13       29.96F
COLUMBUS *     CLOUDY   N/A N/A N/A E7        29.87R
FREMONT        HVY RAIN  69  66  89 E13G18    29.92S
TEKAMAH        RAIN      68  66  93 E12       29.95S FOG
6HR MIN TEMP:  68; 6HR MAX TEMP:  79; 6HR PCP:  0.17;

WAYNE          TSTM      69  67  93 E14       29.92F
$$

NEZ050>053-065>068-078-088>093-280700-
SOUTHEAST NEBRASKA

CITY           SKY/WX    TMP DP  RH WIND       PRES   REMARKS
LINCOLN        TSTM      69  67  93 E17G25    29.90R FOG
6HR MIN TEMP:  69; 6HR MAX TEMP:  80; 6HR PCP:  0.25;

OMAHA EPPLEY   TSTM      69  67  93 E6        29.98R
6HR MIN TEMP:  69; 6HR MAX TEMP:  80; 6HR PCP:  0.07;

BEATRICE       MOCLDY    69  66  89 S15G21    29.86F
FALLS CITY     FAIR      71  67  87 S9        29.94R
6HR MIN TEMP:  70; 6HR MAX TEMP:  77; 6HR PCP: TRACE;

NEBRASKA CITY  LGT RAIN  69  67  94 SE14      29.92F
PLATTSMOUTH    LGT RAIN  67  65  93 E9        29.92F
$$

NEZ044-045-051>053-067-280700-
OMAHA AREA

CITY           SKY/WX    TMP DP  RH WIND       PRES   REMARKS
OMAHA EPPLEY   TSTM      69  67  93 E6        29.98R
6HR MIN TEMP:  69; 6HR MAX TEMP:  80; 6HR PCP:  0.07;

BLAIR          TSTM      67  65  91 E13       29.96F
FREMONT        HVY RAIN  69  66  89 E13G18    29.92S
MILLARD        HVY RAIN  69  67  93 E7        29.95R
OFFUTT AFB     RAIN      68  67  94 NE7       29.95F
PLATTSMOUTH    LGT RAIN  67  65  93 E9        29.92F
WAHOO          LGT RAIN  69  66  92 E3        29.92R
$$



USA.gov is the U.S. government's official web portal to all federal, state and local government web resources and services.